Location: Dillon
(41.1766°N, 107.0923°W)
Time: 00:35:25
(UTC+00:00)

AIST 2D - Visible Passes

Search period start: 29 June 2022 00:00
Search period end: 09 July 2022 00:00
Orbit: 433 x 449 km, 97.1° (Epoch: 27 June)

Date Brightness Start Highest point End Pass type
(mag) Time Alt. Az. Time Alt. Az. Time Alt. Az.
29 Jun ? 04:53:14 10° N 04:56:33 68° WNW 04:57:41 37° SSW visible
30 Jun ? 04:15:47 10° NNE 04:18:49 32° E 04:19:37 28° SE visible
30 Jun ? 05:49:32 10° NW 05:51:07 13° WNW 05:52:41 10° W visible
01 Jul ? 03:40:14 10° E 03:40:52 10° E 03:41:31 10° ESE visible
01 Jul ? 05:10:33 10° N 05:13:39 37° WNW 05:14:59 25° WSW visible
02 Jul ? 04:32:41 10° NNE 04:35:59 58° E 04:36:53 40° SSE visible
03 Jul ? 03:55:46 10° NE 03:58:05 17° E 03:58:45 17° ESE visible
03 Jul ? 05:27:59 10° NNW 05:30:38 22° WNW 05:32:12 16° WSW visible
04 Jul ? 04:49:41 10° N 04:53:01 77° WNW 04:54:04 41° SSW visible
05 Jul ? 04:12:13 10° NE 04:15:10 29° E 04:15:54 26° ESE visible
05 Jul ? 05:45:40 10° NW 05:47:31 14° WNW 05:49:21 10° WSW visible
06 Jul ? 05:06:46 10° N 05:09:56 42° WNW 05:11:10 29° SW visible
07 Jul ? 04:28:53 10° NNE 04:32:09 51° E 04:32:57 40° SE visible
08 Jul ? 03:52:01 10° NE 03:54:09 16° E 03:54:43 15° ESE visible
08 Jul ? 05:23:57 10° NNW 05:26:44 25° WNW 05:28:11 19° WSW visible
